, FL

(GMT )
Crestview

Weather History for KEGI - April, 2013

Change the Weather History Date:

Monday, April 29, 2013

  Actual Average Record
Temperature  
Mean Temperature 70 °F -  
Max Temperature 78 °F - - ()
Min Temperature 64 °F - - ()
Cooling Degree Days 6    
Growing Degree Days 20 (Base 50)    
Moisture  
Dew Point 65 °F    
Average Humidity 90    
Maximum Humidity 100    
Minimum Humidity 65    
Precipitation  
Precipitation 0.56 in - - ()
Sea Level Pressure  
Sea Level Pressure 29.97 in    
Wind  
Wind Speed 5 mph (East)    
Max Wind Speed 20 mph    
Max Gust Speed 21 mph    
Visibility 9 miles    
Events Rain , Thunderstorm    
Averages and records for this station are not official NWS values.
T = Trace of Precipitation, MM = Missing Value Source: NWS Daily Summary

Daily Weather History Graph

Daily Weather History Graph

Search for Another Location

Airport or City:

Trip Planner

Search our weather history database for the weather conditions in past years. The results will help you decide how hot, cold, wet, or windy it might be!

Date:

Astronomy

Apr. 29, 2013 Rise Set
Actual Time 6:03 AM CDT 7:23 PM CDT
Civil Twilight 5:38 AM CDT 7:48 PM CDT
Nautical Twilight 5:08 AM CDT 8:19 PM CDT
Astronomical Twilight 4:36 AM CDT 8:50 PM CDT
Moon 11:42 PM CDT (4/29) 9:30 AM CDT (4/29)
Length of Visible Light 14h 10m
Length of Day
13h 19m
Waning Gibbous, 80% of the Moon is Illuminated
Apr 29
Waning Gibbous
May 2
Last Quarter
May 9
New
May 17
First Quarter
May 24
Full

Hourly Weather History & Observations

Time (CDT) Temp. Dew Point Humidity Pressure Visibility Wind Dir Wind Speed Gust Speed Precip Events Conditions
12:58 AM 66.7 °F 62.1 °F 85% 30.00 in 10.0 mi ENE 5.8 mph - N/A   Mostly Cloudy
1:58 AM 65.8 °F 63.1 °F 91% 29.98 in 10.0 mi East 8.1 mph - N/A   Scattered Clouds
2:58 AM 65.8 °F 64.0 °F 94% 29.96 in 10.0 mi East 3.5 mph - N/A   Scattered Clouds
3:58 AM 65.8 °F 64.9 °F 97% 29.96 in 10.0 mi ESE 2.3 mph - N/A   Scattered Clouds
4:01 AM 66.2 °F 64.4 °F 94% 29.95 in 10.0 mi ESE 1.2 mph - N/A Rain Light Rain
4:23 AM 66.2 °F 64.4 °F 94% 29.95 in 10.0 mi SE 4.6 mph - N/A   Partly Cloudy
4:52 AM 66.2 °F 66.2 °F 100% 29.94 in 10.0 mi SE 4.6 mph - N/A   Light Drizzle
4:58 AM 66.0 °F 65.5 °F 98% 29.95 in 10.0 mi SE 5.8 mph - 0.00 in   Light Drizzle
5:12 AM 66.2 °F 66.2 °F 100% 29.95 in 10.0 mi SE 3.5 mph - N/A   Partly Cloudy
5:58 AM 65.8 °F 65.5 °F 99% 29.95 in 10.0 mi ESE 3.5 mph - 0.00 in   Partly Cloudy
6:58 AM 66.4 °F 65.8 °F 98% 29.98 in 10.0 mi NNW 3.5 mph - N/A   Partly Cloudy
7:01 AM 66.2 °F 66.2 °F 100% 29.97 in 10.0 mi NNW 5.8 mph - N/A   Partly Cloudy
7:11 AM 66.2 °F 66.2 °F 100% 29.98 in 10.0 mi NNW 8.1 mph - N/A   Mostly Cloudy
7:46 AM 66.2 °F 66.2 °F 100% 29.99 in 10.0 mi NE 3.5 mph - N/A   Overcast
7:58 AM 66.2 °F 66.0 °F 99% 30.00 in 10.0 mi North 4.6 mph - N/A   Overcast
8:18 AM 66.2 °F 66.2 °F 100% 29.99 in 10.0 mi NNE 4.6 mph - N/A   Overcast
8:48 AM 68.0 °F 66.2 °F 94% 30.01 in 10.0 mi North 5.8 mph - N/A   Overcast
8:55 AM 67.3 °F 65.7 °F 95% 30.01 in 8.0 mi North 9.2 mph - N/A   Overcast
8:58 AM 68.0 °F 66.2 °F 94% 30.00 in 10.0 mi North 6.9 mph - N/A   Overcast
9:13 AM 68.0 °F 66.2 °F 94% 30.00 in 10.0 mi Variable 3.5 mph - N/A   Overcast
9:27 AM 68.0 °F 66.2 °F 94% 30.00 in 6.0 mi NE 4.6 mph - N/A Rain Light Rain Showers
9:28 AM 68.0 °F 66.2 °F 94% 30.01 in 10.0 mi NE 3.5 mph - N/A   Overcast
9:29 AM 68.0 °F 66.2 °F 94% 30.01 in 8.0 mi NE 3.5 mph - N/A   Light Drizzle
9:32 AM 68.0 °F 66.2 °F 94% 30.00 in 5.0 mi NE 4.6 mph - N/A Rain Light Rain Showers
9:34 AM 68.0 °F 66.2 °F 94% 30.00 in 2.0 mi NE 4.6 mph - N/A Rain Heavy Rain
9:39 AM 68.0 °F 66.2 °F 94% 30.00 in 1.8 mi North 4.6 mph - N/A Rain Light Rain
9:44 AM 68.0 °F 66.2 °F 94% 30.00 in 7.0 mi NE 3.5 mph - N/A Rain Light Rain
9:55 AM 67.6 °F 67.1 °F 98% 30.01 in 9.0 mi ENE 2.3 mph - 0.05 in   Overcast
10:06 AM 68.0 °F 68.0 °F 100% 30.01 in 10.0 mi Variable 3.5 mph - N/A   Overcast
10:56 AM 72.0 °F 67.3 °F 85% 30.01 in 10.0 mi East 3.5 mph - N/A   Mostly Cloudy
11:57 AM 75.7 °F 65.7 °F 71% 29.99 in 10.0 mi Variable 2.3 mph - N/A   Mostly Cloudy
12:55 PM 77.9 °F 65.1 °F 65% 29.97 in 10.0 mi North 8.1 mph - N/A   Mostly Cloudy
1:26 PM 77.0 °F 64.4 °F 65% 29.96 in 10.0 mi SE 6.9 mph - N/A Rain , Thunderstorm Light Thunderstorms and Rain
1:50 PM 73.4 °F 62.6 °F 69% 29.96 in 0.8 mi South 11.5 mph - N/A Rain , Thunderstorm Heavy Thunderstorms and Rain
1:55 PM 72.1 °F 63.0 °F 73% 29.97 in 1.0 mi SSE 19.6 mph 20.7 mph 0.04 in Rain , Thunderstorm Thunderstorms and Rain
2:10 PM 68.0 °F 60.8 °F 78% 29.97 in 2.0 mi South 10.4 mph - N/A Rain Rain Showers
2:21 PM 68.0 °F 62.6 °F 83% 29.95 in 5.0 mi South 3.5 mph - N/A Rain Light Rain Showers
2:55 PM 75.7 °F 66.6 °F 73% 29.94 in 10.0 mi SSE 8.1 mph - 0.47 in   Scattered Clouds
3:58 PM 75.7 °F 68.5 °F 78% 29.92 in 10.0 mi South 16.1 mph - N/A   Mostly Cloudy
4:29 PM 73.4 °F 66.2 °F 78% 29.93 in 10.0 mi South 11.5 mph - N/A Thunderstorm Thunderstorm
4:55 PM 73.0 °F 66.6 °F 80% 29.92 in 10.0 mi South 6.9 mph - N/A   Mostly Cloudy
5:11 PM 73.4 °F 66.2 °F 78% 29.92 in 10.0 mi South 11.5 mph - N/A   Light Drizzle
5:55 PM 73.4 °F 64.8 °F 74% 29.94 in 10.0 mi South 10.4 mph - 0.00 in   Mostly Cloudy
6:55 PM 71.1 °F 64.2 °F 79% 29.94 in 10.0 mi East 3.5 mph - N/A   Mostly Cloudy
7:55 PM 68.4 °F 63.9 °F 85% 29.94 in 10.0 mi East 4.6 mph - N/A   Mostly Cloudy
8:55 PM 66.0 °F 64.0 °F 93% 29.95 in 10.0 mi SE 1.2 mph - N/A   Scattered Clouds
9:55 PM 64.6 °F 63.3 °F 96% 29.95 in 10.0 mi SE 1.2 mph - N/A   Partly Cloudy
10:55 PM 65.8 °F 65.5 °F 99% 29.97 in 10.0 mi ESE 5.8 mph - N/A   Mostly Cloudy
11:23 PM 66.2 °F 66.2 °F 100% 29.95 in 10.0 mi ESE 6.9 mph - N/A   Mostly Cloudy
11:32 PM 66.2 °F 66.2 °F 100% 29.96 in 7.0 mi East 4.6 mph - N/A   Mostly Cloudy
11:55 PM 66.4 °F 66.0 °F 99% 29.95 in 9.0 mi SE 4.6 mph - N/A   Mostly Cloudy
11:57 PM 66.2 °F 66.2 °F 100% 29.95 in 10.0 mi SE 4.6 mph - N/A   Mostly Cloudy